This demonstration page uses our WeatherBlox Daily Observations layout. Learn more.

Left ArrowRight Arrow

39.01783, -85.05884

Hourly Observations for November 1, 2021

Temp ( °F °C ) Dew Point ( °F °C ) Humidity (%) Winds ( mph kmh ) Pressure ( in mb ) Visibility ( mi km ) Precip ( " mm )
12:52 am 00:52 Clear 47 8.3 40 4.4 77 77 NW 6 9 30.14 1021 10 16 N/A
1:52 am 01:52 Clear 46 7.8 40 4.4 79 79 NW 8 13 30.16 1021 10 16 N/A
2:52 am 02:52 Clear 43 6.1 38 3.3 82 82 WNW 5 7 30.17 1022 10 16 N/A
3:52 am 03:52 Clear 43 6.1 37 2.8 80 80 NW 8 13 30.19 1022 10 16 N/A
4:52 am 04:52 Clear 42 5.6 36 2.2 79 79 WNW 7 11 30.21 1023 10 16 N/A
5:52 am 05:52 Clear 42 5.6 35 1.7 76 76 WNW 8 13 30.23 1024 10 16 N/A
6:52 am 06:52 Clear 38 3.3 34 1.1 86 86 WNW 3 6 30.25 1024 10 16 N/A
7:52 am 07:52 Mostly Clear 38 3.3 33 0.6 83 83 WNW 7 11 30.26 1025 10 16 N/A
8:52 am 08:52 Mostly Sunny 40 4.4 34 1.1 79 79 WSW 3 6 30.29 1026 10 16 N/A
9:52 am 09:52 Mostly Sunny 44 6.7 35 1.7 71 71 WNW 5 7 30.31 1026 10 16 N/A
10:52 am 10:52 Mostly Cloudy 48 8.9 35 1.7 61 61 N 5 7 30.31 1027 10 16 N/A
11:52 am 11:52 Mostly Cloudy 51 10.6 34 1.1 52 52 VRB 5 7 30.31 1027 10 16 N/A
12:52 pm 12:52 Mostly Cloudy 52 11.1 32 undefined 47 47 W 6 9 30.29 1026 10 16 N/A
1:52 pm 13:52 Mostly Cloudy 53 11.7 31 -0.6 43 43 W 6 9 30.27 1025 10 16 N/A
2:52 pm 14:52 Mostly Cloudy 53 11.7 31 -0.6 43 43 W 3 6 30.26 1025 10 16 N/A
3:52 pm 15:52 Mostly Cloudy 54 12.2 31 -0.6 42 42 W 9 15 30.25 1024 10 16 N/A
4:52 pm 16:52 Mostly Cloudy 53 11.7 28 -2.2 38 38 WNW 10 17 30.25 1024 10 16 N/A
5:52 pm 17:52 Cloudy 51 10.6 30 -1.1 44 44 W 9 15 30.26 1025 10 16 N/A
6:52 pm 18:52 Cloudy 50 10 29 -1.7 44 44 WNW 9 15 30.27 1025 10 16 N/A
7:52 pm 19:52 Cloudy 49 9.4 30 -1.1 48 48 NW 8 13 30.27 1025 10 16 N/A
8:52 pm 20:52 Cloudy 48 8.9 31 -0.6 52 52 NW 13 20 30.28 1026 10 16 N/A
9:52 pm 21:52 Cloudy 47 8.3 32 undefined 56 56 NNW 9 15 30.29 1026 10 16 N/A
10:52 pm 22:52 Cloudy 46 7.8 32 undefined 58 58 NNW 10 17 30.30 1026 10 16 N/A
11:52 pm 23:52 Cloudy 45 7.2 32 undefined 61 61 NW 8 13 30.30 1026 10 16 N/A

Powered by AerisWeather